Fryeburg, ME

8:43 AM EST on January 18, 2017 (GMT -0500)
Eastern Slopes Regional

Weather History for KIZG - May, 2013

Change the Weather History Date:

Monday, May 13, 2013

  Actual Average Record
Temperature  
Mean Temperature 47 °F -  
Max Temperature 55 °F 64 °F 82 °F (2012)
Min Temperature 39 °F 37 °F 27 °F (1999)
Degree Days  
Heating Degree Days 18    
Moisture  
Dew Point 27 °F    
Average Humidity 47    
Maximum Humidity 67    
Minimum Humidity 33    
Precipitation  
Precipitation 0.00 in - - ()
Sea Level Pressure  
Sea Level Pressure 29.88 in    
Wind  
Wind Speed 7 mph (WSW)    
Max Wind Speed 15 mph    
Max Gust Speed 28 mph    
Visibility 10 miles    
Events      
Averages and records for this station are not official NWS values.
T = Trace of Precipitation, MM = Missing Value Source: NWS Daily Summary

Daily Weather History Graph

Daily Weather History Graph

Search for Another Location

Airport or City:

Trip Planner

Search our weather history database for the weather conditions in past years. The results will help you decide how hot, cold, wet, or windy it might be!

Date:

Astronomy

May. 13, 2013 Rise Set
Actual Time 5:19 AM EDT 8:01 PM EDT
Civil Twilight 4:46 AM EDT 8:34 PM EDT
Nautical Twilight 4:04 AM EDT 9:16 PM EDT
Astronomical Twilight 3:17 AM EDT 10:04 PM EDT
Moon 8:02 AM EDT (5/13) 11:08 PM EDT (5/13)
Length of Visible Light 15h 47m
Length of Day
14h 41m
Waxing Crescent, 12% of the Moon is Illuminated
May 13
Waxing Crescent
May 18
First Quarter
May 25
Full
May 31
Last Quarter
Jun 8
New

Hourly Weather History & Observations

Time (EDT) Temp. Windchill Dew Point Humidity Pressure Visibility Wind Dir Wind Speed Gust Speed Precip Events Conditions
12:54 AM 46.0 °F 43.9 °F 25.0 °F 44% 29.76 in 10.0 mi West 4.6 mph - N/A   Clear
1:54 AM 39.0 °F 36.8 °F 26.1 °F 60% 29.77 in 10.0 mi WSW 3.5 mph - N/A   Clear
2:54 AM 39.0 °F - 28.9 °F 67% 29.77 in 10.0 mi Calm Calm - N/A   Clear
3:54 AM 41.0 °F 38.0 °F 28.0 °F 60% 29.77 in 10.0 mi Variable 4.6 mph - N/A   Clear
4:54 AM 41.0 °F 36.4 °F 27.0 °F 57% 29.78 in 10.0 mi SW 6.9 mph - N/A   Clear
5:54 AM 41.0 °F 39.0 °F 27.0 °F 57% 29.81 in 10.0 mi Variable 3.5 mph - N/A   Partly Cloudy
6:54 AM 44.1 °F 39.0 °F 26.1 °F 49% 29.82 in 10.0 mi SW 9.2 mph - N/A   Overcast
7:54 AM 46.9 °F - 26.1 °F 44% 29.84 in 10.0 mi SW 9.2 mph 18.4 mph N/A   Mostly Cloudy
8:54 AM 48.0 °F - 26.1 °F 42% 29.86 in 10.0 mi WSW 15.0 mph 24.2 mph N/A   Partly Cloudy
9:54 AM 50.0 °F - 26.1 °F 39% 29.88 in 10.0 mi SW 15.0 mph 27.6 mph N/A   Clear
10:54 AM 52.0 °F - 26.1 °F 37% 29.89 in 10.0 mi WSW 11.5 mph 25.3 mph N/A   Clear
11:54 AM 50.0 °F - 24.1 °F 36% 29.91 in 10.0 mi SW 10.4 mph 26.5 mph N/A   Scattered Clouds
12:54 PM 54.0 °F - 26.1 °F 34% 29.90 in 10.0 mi West 13.8 mph 25.3 mph N/A   Clear
1:54 PM 55.0 °F - 26.1 °F 33% 29.91 in 10.0 mi West 11.5 mph 21.9 mph N/A   Partly Cloudy
2:54 PM 55.0 °F - 26.1 °F 33% 29.91 in 10.0 mi WSW 13.8 mph 24.2 mph N/A   Scattered Clouds
4:54 PM 52.0 °F - 25.0 °F 35% 29.91 in 10.0 mi WSW 8.1 mph 18.4 mph N/A   Overcast
5:54 PM 52.0 °F - 26.1 °F 37% 29.92 in 10.0 mi WSW 8.1 mph 16.1 mph N/A   Mostly Cloudy
6:54 PM 51.1 °F - 27.0 °F 39% 29.94 in 10.0 mi Variable 4.6 mph - N/A   Overcast
8:54 PM 43.0 °F 41.3 °F 28.9 °F 58% 29.99 in 10.0 mi SW 3.5 mph - N/A   Clear
9:54 PM 43.0 °F 41.3 °F 30.0 °F 60% 30.03 in 10.0 mi WSW 3.5 mph - N/A   Mostly Cloudy
10:54 PM 44.1 °F 40.8 °F 30.0 °F 58% 30.03 in 10.0 mi West 5.8 mph - N/A   Overcast
11:54 PM 43.0 °F 41.3 °F 30.9 °F 62% 30.02 in 10.0 mi West 3.5 mph - N/A   Mostly Cloudy